Regional Weather Roundup
Issued by NWS

Home | Current Version | Previous Version | Text Only | Print | Product List | Glossary Off
Versions: 1 2 3 4 5 6 7 8 9 10 11 12 13 14 15 16 17 18 19 20 21 22 23 24 25 26 27 28 29 30 31 32 33 34 35 36 37 38 39 40 41 42 43 44 45 46 47 48 49 50

000
ASUS43 KMKX 310400
RWRWI

WISCONSIN REGIONAL WEATHER ROUNDUP
NATIONAL WEATHER SERVICE MILWAUKEE/SULLIVAN WI
1100 PM CDT SAT JUL 30 2016

NOTE: "FAIR" INDICATES FEW OR NO CLOUDS BELOW 12,000 FEET WITH NO
SIGNIFICANT WEATHER AND/OR OBSTRUCTIONS TO VISIBILITY.

WIZ001-002-006>008-014>016-023>028-310500-
NORTHWEST WISCONSIN

CITY           SKY/WX    TMP DP  RH WIND       PRES   REMARKS
SUPERIOR ARPT  CLOUDY    64  63  97 NE6       30.02S
ASHLAND        CLEAR     60  59  96 CALM      30.04S
HAYWARD        CLEAR     60  58  92 NE3       30.04R
SIREN          CLEAR     66  63  88 CALM      30.02
CUMBERLAND     CLEAR     64  59  82 CALM      30.03S
RICE LAKE      CLEAR     64  61  90 E5        30.04S
CHETEK         CLEAR     68  64  87 MISG      30.03S
LADYSMITH      PTCLDY    66  61  82 E3        30.07R
EAU CLAIRE     NOT AVBL
MENOMONIE      CLEAR     67  62  82 CALM      30.02S
NEW RICHMOND   CLEAR     67  62  85 CALM      30.02R
OSCEOLA        CLEAR     66  66 100 CALM      30.03S
$$

WIZ003>005-009-010-017-018-310500-
NORTH CENTRAL WISCONSIN

CITY           SKY/WX    TMP DP  RH WIND       PRES   REMARKS
MANITOWISH WTR CLEAR     62  59  87 S5        30.08R
ARBOR VITAE    CLEAR     65  56  71 SE5       30.09R
WOODRUFF       CLEAR     65  56  71 SE5       30.09R
RHINELANDER    CLEAR     62  54  74 CALM      30.10S
EAGLE RIVER    CLEAR     60  53  77 CALM      30.09S
LAND O LAKES   CLEAR     58  54  86 CALM      30.10S
PHILLIPS       MOCLDY    65  59  80 SE3       30.07R
TOMAHAWK       CLEAR     60  55  83 CALM      30.09S
MEDFORD        CLEAR     63  57  82 SE5       30.07R
MERRILL        CLEAR     58  56  93 CALM      30.09S
$$

WIZ029-030-035-036-043>047-310500-
CENTRAL WISCONSIN

CITY           SKY/WX    TMP DP  RH WIND       PRES   REMARKS
WAUSAU         CLEAR     61  54  77 E6        30.06S
MOSINEE        PTCLDY    61  54  77 E6        30.08S
MARSHFIELD     PTCLDY    65  56  72 SE3       30.06S
STEVENS POINT  PTCLDY    58  55  89 CALM      30.07S
WAUPACA        CLEAR     61  60  94 CALM      30.06S
WAUTOMA        CLEAR     63  58  83 CALM      30.06S
WISC RAPIDS    PTCLDY    64  53  67 E5        30.07S
CAMP DOUGLAS   NOT AVBL
$$

WIZ011>013-019>022-031-037>040-048>050-310500-
NORTHEAST WISCONSIN

CITY           SKY/WX    TMP DP  RH WIND       PRES   REMARKS
ANTIGO         CLEAR     56  55  95 CALM      30.09S
SHAWANO        CLEAR     62  56  81 CALM      30.07S
OCONTO         CLEAR    N/A N/A N/A CALM      30.05S
STURGEON BAY   CLEAR     67  58  72 NE5       30.06S
GREEN BAY      CLEAR     59  59 100 NW5       30.06R
MANITOWOC      NOT AVBL
APPLETON       CLEAR     63  54  72 CALM      30.05S
CLINTONVILLE   CLEAR     59  54  82 CALM      30.06S
OSHKOSH        CLEAR     68  54  60 NE3       30.05S
$$

WIZ032>034-041-042-053>061-310500-
SOUTHWEST WISCONSIN

CITY           SKY/WX    TMP DP  RH WIND       PRES   REMARKS
LA CROSSE      CLEAR     71  65  81 E6        30.01R
SPARTA         PTCLDY    66  64  94 E5        30.05R
VIROQUA        CLEAR     65  63  92 E6        30.05S
BOSCOBEL       CLEAR     65  64  97 CALM      30.02S
PRAIRIE DU CHI CLEAR     67  64  90 CALM      30.01S
PLATTEVILLE    CLEAR     67  64  90 E6        30.04R
$$

WIZ056-057-062-063-064-067-068-310500-
SOUTH CENTRAL WISCONSIN

CITY           SKY/WX    TMP DP  RH WIND       PRES   REMARKS
REEDSBURG      CLEAR     63  61  93 CALM      30.05R
BARABOO/DELLS  CLEAR     62  57  86 CALM      30.05S
LONE ROCK      NOT AVBL
MINERAL POINT  PTCLDY    68  63  83 E5        30.04S
MADISON        MOCLDY    64  57  78 CALM      30.04R
MIDDLETON      CLEAR     64  60  87 CALM      30.05S
WATERTOWN      CLEAR     61  57  88 CALM      30.04S
MONROE         CLEAR     64  59  82 E3        30.04R
JANESVILLE     CLEAR     64  61  88 E6        30.02
$$

WIZ051-052-058>065-066-070>072-310500-
SOUTHEAST WISCONSIN

CITY           SKY/WX    TMP DP  RH WIND       PRES   REMARKS
MILWAUKEE      CLEAR     68  63  84 N7        30.02S
WAUKESHA       CLEAR     63  57  82 CALM      30.05S
MILWAUKEE/TIMM CLEAR     64  59  82 NE6       30.04S
RACINE         CLEAR     67  63  87 N3        30.04S
BURLINGTON     CLEAR     60  58  92 CALM      30.03S
KENOSHA        CLEAR     65  62  90 N5        30.03R
FOND DU LAC    CLEAR     61  57  87 CALM      30.05S
SHEBOYGAN      CLEAR     61  57  87 N3        30.04S
WEST BEND      CLEAR     61  55  82 CALM      30.05S
JUNEAU         CLEAR     63  55  75 NE3       30.06S
$$

LSZ147-162-310500-
LAKE SUPERIOR

STATION/POSITION TIME  TEMP    WIND        PRES    WAVE
                       AIR SEA DIR/SP/G            HT/PER
                 (UTC) (F)     (DEG/KT/KT) (MB)    (FT/S)
W MID LAKE BUOY  0250   66 62  100/ 10/ 10 1016.5S   0
DEVILS ISLAND    0300   67     100/  6/  7 1016.7R
PORT WING        0300   62     170/  2/  3 1016.6
SAXON HARBOR     0300   64     190/  4/  4 1016.6R
$$

LMZ867-665-643>646-310500-
LAKE MICHIGAN

STATION/POSITION TIME  TEMP    WIND        PRES    WAVE
                       AIR SEA DIR/SP/G            HT/PER
                 (UTC) (F)     (DEG/KT/KT) (MB)    (FT/S)
CHAMBERS ISLAND  0300   72      40/  8/  9 1017.6R
S GREEN BAY BUOY 0300   71 71   50/  6/  8 1017.0R
N MID LAKE BUOY  0250   71 70   80/ 10/ 12 1016.8R   1/ 3
NORTHPORT PIER   0300   71      40/  4/  5 1017.6R
SISTER BAY       0321   66        CALM       N/A
ALGOMA LAKESHORE 0313           30/  6/  7   N/A
KEWAUNEE LAKESHO 0318                      1016.7R
SHEBOYGAN LAKESH 0300   67     360/  8/  9 1017.2R
PORT WASHINGTON  0340   67     330/  4/  7 1017.6R
ATWATER BUOY     0300   67 65  350/  6/  8 1018.3R
MILWAUKEE LAKESH 0310   68     360/  6/  7   N/A
S MID LAKE BUOY  0250   72 73   80/ 12/ 12 1015.4R   1/ 4
KENOSHA   LAKESH 0300   71      10/ 10/ 12 1015.9S
$$

TC  - TEMPERATURE IN CELSIUS
VSB - VISIBILITY IN STATUTE MILES
WCI - WIND CHILL INDEX
HX  - HEAT INDEX




USA.gov is the U.S. government's official web portal to all federal, state and local government web resources and services.